Weather History for Decatur, AL

Change the Weather History Date:

Tuesday, January 15, 2013

  Actual Average Record
Temperature  
Mean Temperature 37 °F -  
Max Temperature 39 °F 47 °F 72 °F (1952)
Min Temperature 35 °F 28 °F 9 °F (1963)
Degree Days  
Heating Degree Days 28    
Moisture  
Dew Point 35 °F    
Average Humidity 94    
Maximum Humidity 100    
Minimum Humidity 92    
Precipitation  
Precipitation 1.74 in - - ()
Sea Level Pressure  
Sea Level Pressure 30.07 in    
Wind  
Wind Speed 8 mph (NNE)    
Max Wind Speed 15 mph    
Max Gust Speed -    
Visibility 4 miles    
Events      
Averages and records for this station are not official NWS values.
T = Trace of Precipitation, MM = Missing Value Source: NWS Daily Summary

Daily Weather History Graph

Daily Weather History Graph

Search for Another Location

Airport:

Trip Planner

Search our weather history database for the weather conditions in past years. The results will help you decide how hot, cold, wet, or windy it might be!

Date:

Astronomy

Jan. 15, 2013 Rise Set
Actual Time 6:54 AM CST 5:00 PM CST
Civil Twilight 6:27 AM CST 5:27 PM CST
Nautical Twilight 5:56 AM CST 5:58 PM CST
Astronomical Twilight 5:25 AM CST 6:29 PM CST
Moon 9:12 AM CST (1/15) 9:35 PM CST (1/15)
Length of Visible Light 11h 00m
Length of Day
10h 06m
Waxing Crescent, 19% of the Moon is Illuminated
Jan 15
Waxing Crescent
Jan 18
First Quarter
Jan 26
Full
Feb 3
Last Quarter
Feb 10
New

Hourly Weather History & Observations

Time (CST) Temp. Windchill Dew Point Humidity Pressure Visibility Wind Dir Wind Speed Gust Speed Precip Events Conditions
12:53 AM 35.1 °F 27.4 °F 33.1 °F 92% 30.17 in 5.0 mi North 10.4 mph - 0.03 in   Overcast
2:53 AM 35.1 °F 27.4 °F 33.1 °F 92% 30.18 in 5.0 mi North 10.4 mph - 0.02 in   Overcast
3:53 AM 35.1 °F 28.6 °F 33.1 °F 92% 30.18 in 6.0 mi North 8.1 mph - 0.03 in   Overcast
4:53 AM 35.1 °F 26.9 °F 33.1 °F 92% 30.19 in 8.0 mi North 11.5 mph - N/A   Overcast
5:53 AM 35.1 °F 27.4 °F 33.1 °F 92% 30.18 in 7.0 mi North 10.4 mph - N/A   Overcast
6:53 AM 35.1 °F 27.9 °F 33.1 °F 92% 30.18 in 5.0 mi NNE 9.2 mph - 0.01 in   Overcast
7:53 AM 35.1 °F 29.3 °F 33.1 °F 92% 30.17 in 2.5 mi NNE 6.9 mph - 0.09 in   Overcast
8:00 AM 35.6 °F 31.7 °F 33.8 °F 93% 30.17 in 4.0 mi NE 4.6 mph - 0.01 in   Overcast
8:15 AM 35.6 °F 28.6 °F 33.8 °F 93% 30.16 in 1.8 mi NNE 9.2 mph - 0.05 in   Overcast
8:22 AM 35.6 °F 28.6 °F 33.8 °F 93% 30.18 in 3.0 mi North 9.2 mph - 0.05 in   Overcast
8:41 AM 35.6 °F 30.7 °F 33.8 °F 93% 30.16 in 2.0 mi ENE 5.8 mph - 0.07 in   Overcast
8:53 AM 35.1 °F 29.3 °F 34.0 °F 96% 30.17 in 3.0 mi NE 6.9 mph - 0.08 in   Overcast
9:47 AM 35.6 °F 29.2 °F 33.8 °F 93% 30.13 in 1.8 mi ENE 8.1 mph - 0.08 in   Overcast
9:53 AM 36.0 °F 30.3 °F 34.0 °F 93% 30.14 in 1.5 mi NNE 6.9 mph - 0.11 in   Overcast
10:01 AM 35.6 °F 30.7 °F 35.6 °F 100% 30.13 in 3.0 mi NE 5.8 mph - 0.01 in   Overcast
10:22 AM 35.6 °F 30.7 °F 35.6 °F 100% 30.12 in 2.5 mi NE 5.8 mph - 0.06 in   Overcast
10:39 AM 37.4 °F 32.8 °F 35.6 °F 93% 30.12 in 3.0 mi North 5.8 mph - 0.10 in   Overcast
10:53 AM 37.0 °F 32.4 °F 35.1 °F 93% 30.12 in 3.0 mi NNE 5.8 mph - 0.12 in   Overcast
10:57 AM 37.4 °F 32.1 °F 35.6 °F 93% 30.11 in 2.5 mi North 6.9 mph - 0.01 in   Overcast
11:11 AM 37.4 °F 32.1 °F 35.6 °F 93% 30.08 in 5.0 mi NE 6.9 mph - 0.02 in   Overcast
11:30 AM 37.4 °F 33.8 °F 35.6 °F 93% 30.06 in 2.5 mi NE 4.6 mph - 0.06 in   Overcast
11:37 AM 37.4 °F 33.8 °F 35.6 °F 93% 30.07 in 4.0 mi NNE 4.6 mph - 0.06 in   Overcast
11:53 AM 37.9 °F 32.7 °F 36.0 °F 93% 30.08 in 3.0 mi North 6.9 mph - 0.10 in   Overcast
12:37 PM 37.4 °F 33.8 °F 35.6 °F 93% 30.06 in 2.5 mi North 4.6 mph - 0.11 in   Overcast
12:53 PM 37.9 °F 32.1 °F 36.0 °F 93% 30.05 in 4.0 mi NNE 8.1 mph - 0.15 in   Overcast
1:45 PM 37.4 °F 32.1 °F 35.6 °F 93% 29.97 in 4.0 mi East 6.9 mph - 0.07 in   Overcast
1:53 PM 37.9 °F 34.4 °F 37.0 °F 97% 29.99 in 5.0 mi ENE 4.6 mph - 0.09 in   Overcast
2:09 PM 37.4 °F 34.9 °F 37.4 °F 100% 29.98 in 6.0 mi NE 3.5 mph - 0.01 in   Overcast
2:53 PM 39.0 °F 31.4 °F 37.0 °F 93% 30.05 in 5.0 mi NW 12.7 mph - 0.06 in   Overcast
3:02 PM 37.4 °F 28.5 °F 37.4 °F 100% 30.05 in 1.8 mi NW 15.0 mph - 0.06 in   Overcast
3:10 PM 37.4 °F 28.5 °F 35.6 °F 93% 30.05 in 3.0 mi NW 15.0 mph - 0.07 in   Overcast
3:53 PM 37.0 °F 29.3 °F 35.1 °F 93% 30.06 in 5.0 mi North 11.5 mph - 0.08 in   Overcast
4:53 PM 37.0 °F 33.3 °F 35.1 °F 93% 30.06 in 3.0 mi NNE 4.6 mph - 0.06 in   Overcast
5:53 PM 37.0 °F 32.4 °F 35.1 °F 93% 30.06 in 4.0 mi NNE 5.8 mph - 0.06 in   Overcast
6:36 PM 37.4 °F 30.8 °F 35.6 °F 93% 30.05 in 2.0 mi North 9.2 mph - 0.08 in   Overcast
6:48 PM 37.4 °F 31.4 °F 35.6 °F 93% 30.05 in 4.0 mi North 8.1 mph - 0.12 in   Overcast
6:53 PM 37.0 °F 31.0 °F 35.1 °F 93% 30.06 in 5.0 mi North 8.1 mph - 0.12 in   Overcast
7:53 PM 36.0 °F 32.1 °F 35.1 °F 97% 30.06 in 5.0 mi NE 4.6 mph - 0.12 in   Overcast
8:50 PM 35.6 °F 30.7 °F 35.6 °F 100% 30.00 in 2.5 mi ENE 5.8 mph - 0.15 in   Overcast
8:53 PM 36.0 °F 33.3 °F 35.1 °F 97% 30.01 in 2.5 mi East 3.5 mph - 0.17 in   Overcast
9:12 PM 35.6 °F - 35.6 °F 100% 30.00 in 3.0 mi Calm Calm - 0.07 in   Overcast
9:28 PM 37.4 °F - 35.6 °F 93% 29.99 in 2.5 mi Calm Calm - 0.12 in   Overcast
9:36 PM 37.4 °F 33.8 °F 35.6 °F 93% 29.99 in 5.0 mi NNW 4.6 mph - 0.12 in   Overcast
9:50 PM 37.4 °F 34.9 °F 35.6 °F 93% 29.98 in 7.0 mi NNE 3.5 mph - 0.14 in   Overcast
9:53 PM 37.0 °F 34.5 °F 36.0 °F 96% 30.00 in 7.0 mi NE 3.5 mph - 0.14 in   Overcast
10:17 PM 37.4 °F 33.8 °F 35.6 °F 93% 30.00 in 7.0 mi NW 4.6 mph - 0.04 in   Overcast
10:42 PM 37.4 °F 31.4 °F 35.6 °F 93% 30.01 in 8.0 mi NW 8.1 mph - 0.06 in   Overcast
10:45 PM 37.4 °F 32.1 °F 35.6 °F 93% 30.01 in 8.0 mi NW 6.9 mph - 0.06 in   Overcast
10:53 PM 37.0 °F 30.4 °F 35.1 °F 93% 30.02 in 9.0 mi NW 9.2 mph - 0.06 in   Overcast
11:25 PM 37.4 °F 32.1 °F 35.6 °F 93% 30.00 in 8.0 mi WNW 6.9 mph - 0.03 in   Overcast
11:35 PM 37.4 °F 32.8 °F 35.6 °F 93% 29.98 in 8.0 mi North 5.8 mph - 0.04 in   Overcast
11:53 PM 37.0 °F 32.4 °F 36.0 °F 96% 30.00 in 10.0 mi NNW 5.8 mph - 0.04 in   Overcast